675  
ASUS42 KMHX 221825  
RWRMHX  
WEATHER ROUNDUP FOR EASTERN NORTH CAROLINA  
NATIONAL WEATHER SERVICE NEWPORT/MOREHEAD CITY NC  
200 PM EDT MON JUL 22 2019  
 
NOTE: "FAIR" INDICATES FEW OR NO CLOUDS BELOW 12,000 FEET  
WITH NO SIGNIFICANT WEATHER AND/OR S TO VISIBILITY
 
 
NCZ015>017-031-032-045>047-102-103-221900-  
NORTH COAST  
 
CITY SKY/WX TMP DP RH WIND PRES REMARKS
 
EDENTON NOT AVBL  
ELIZABETH CITY FAIR 95 72 47 SW22 29.91F HX 103  
KITTY HAWK FAIR 95 71 45 SW12 29.92F HX 102  
MANTEO FAIR 92 74 55 SW16G24 29.94F HX 102  
 

 
 
NCZ045>047-081-094-103-104-221900-  
CENTRAL COAST  
 
CITY SKY/WX TMP DP RH WIND PRES REMARKS
 
FRISCO FAIR 86 79 79 SW13G21 29.99F  
 

 
 
NCZ095-097-098-100-101-221900-  
SOUTHERN COAST  
 
CITY SKY/WX TMP DP RH WIND PRES REMARKS
 
BEAUFORT FAIR 89 78 70 SW18 30.00F HX 103  
CEDAR ISLAND NOT AVBL  
JACKSONVILLE FAIR 92 74 55 S13 29.96F HX 101  
PINEY ISLAND FAIR 92 74 55 SW16G24 29.97F HX 101  
WILMINGTON FAIR 94 72 48 SW15G21 29.99F HX 102  
 

 
 
NCZ011>013-027>030-043-044-078>080-089-090>093-098-221900-  
COASTAL PLAIN  
 
CITY SKY/WX TMP DP RH WIND PRES REMARKS
 
AHOSKIE NOT AVBL  
CLINTON FAIR 94 74 51 S7 29.96F HX 104  
ELIZABETHTOWN FAIR 94 73 50 S16 29.96F HX 102  
GOLDSBORO FAIR 94 71 47 SW12 29.94F HX 101  
GREENVILLE FAIR 95 72 46 W12 29.95F HX 103  
HAVELOCK FAIR 95 75 52 S13G22 29.98F HX 107  
KENANSVILLE FAIR 95 72 46 SW8G18 29.95F HX 103  
KINSTON MOSUNNY 97 70 41 W10 29.95F HX 103  
NEW BERN FAIR 94 77 57 SW14 29.96F HX 108  
RICHLANDS FAIR 94 72 48 SW14G21 29.97F HX 102  
ROCKY MOUNT FAIR 97 69 40 SW18G25 29.93F HX 103  
WASHINGTON FAIR 95 69 42 SW9G20 29.93F HX 101  
WHITEVILLE FAIR 93 71 48 S12 29.98F HX 100  
 

 
 
AMZ130-135-150-152-154-156-158-170-250-252-270-ANZ085-086-088-633-658-670-221900-  
MARINE OBSERVATIONS  
 
STATION/POSITION TIME TEMP WIND PRES WAVE SWELL
 
AIR SEA DIR/SP/G HT/PER HT/PER  
(UTC) (F) (DEG/KT/KT) (MB) (FT/S) (FT/S)  
64 E VA BEACH 1750 83 84 210/ 19/ 23 1013.3 4/ 4  
DUCK 1742 90 61 210/ 15/ 19 1013.1  
2 E DUCK NOT AVBL  
10 NE DUCK 1800 81 N/A 2/ 5  
OREGON INLET 1742 200/ 21/ 24 N/A  
13E OREGON INLT 1746 79 N/A 3/ 6 2/13  
HATTERAS CG 1742 84 81 220/ 10/ 17 1015.7  
DIAMOND BUOY 1810 84 84 220/ 17/ 21 1015.3  
CAPE LOOKOUT 1800 86 210/ 14/ 19 1015.7  
BEAUFORT LAB 1748 86 84 210/ 12/ 17 1016.6  
30 SE NEW RVR IN 1808 84 84 250/ 17/ 21 1015.4  
30 SE NEW RVR IN 1800 83 N/A 4/ 6  
27 SE WRIGHTSVLE 1808 82 83 250/ 16/ 21 1016.6  
5 SE WRIGHTSVLE 1708 82 81 220/ 16/ 21 1016.1  
27 SE WRIGHTSVL 1808 82 83 250/ 16/ 21 1016.6  
FRYING PAN BUOY 1810 84 84 230/ 14/ 16 1016.7  
225 S CAPE HAT 1810 84 190/ 12/ 14 1019.6  
41 SE CHARLESTON 1810 84 85 230/ 10/ 12 1017.0  
 

 
 
 
CLICK HERE TO GO TO PREVIOUS BULLETINS.

The Nexlab NC Page Main Text Page